Regional Weather Roundup
Issued by NWS Upton, NY

Current Version | Previous Version | Graphics & Text | Print | Product List | Glossary Off
Versions: 1 2 3 4 5 6 7 8 9 10 11 12 13 14 15 16 17 18 19 20 21 22 23 24 25 26 27 28 29 30 31 32 33 34 35 36 37 38 39 40 41 42 43 44 45 46 47 48 49

077
ASUS41 KOKX 010804
RWROKX

REGIONAL WEATHER ROUNDUP
NATIONAL WEATHER SERVICE NEW YORK NY
400 AM EDT SUN MAY 01 2016

NOTE: "FAIR" INDICATES FEW OR NO CLOUDS BELOW 12,000 FEET WITH NO
SIGNIFICANT WEATHER AND/OR OBSTRUCTIONS TO VISIBILITY.

NYZ071-072-176-178-NJZ106-104-010900-
NEW YORK CITY METRO AREA


CITY           SKY/WX    TMP DP  RH WIND       PRES   REMARKS
CENTRAL PARK   CLOUDY    50  32  50 CALM      30.22S
LAGUARDIA APRT CLOUDY    50  35  56 S3        30.20S
KENNEDY INTL   CLOUDY    49  37  63 SE5       30.22S
NEWARK/LIBERTY CLOUDY    51  38  60 CALM      30.20R
BRNX BOT. GARD   N/A     48  36  61 NE1       30.21S
TETERBORO      LGT RAIN  50  36  58 SW3       30.19S
$$

NYZ177-179-078>081-010900-
LONG ISLAND NEW YORK

CITY           SKY/WX    TMP DP  RH WIND       PRES   REMARKS
FARMINGDALE    CLOUDY    48  39  71 SE3       30.21S
ISLIP          CLOUDY    48  37  65 E5        30.21R
SHIRLEY        CLOUDY    45  39  79 CALM      30.22S
RIVERHEAD        N/A     45  41  87 CALM      30.22R
WESTHAMPTON    CLOUDY    41  37  86 CALM      30.23S
EAST HAMPTON   FAIR      38  36  90 CALM      30.22S
MONTAUK POINT    N/A     43  39  86 CALM      30.24S
$$

NYZ052-065-067-010900-
HUDSON VALLEY

CITY           SKY/WX    TMP DP  RH WIND       PRES   REMARKS
WHITE PLAINS   CLOUDY    47  38  71 CALM      30.19S
NEWBURGH       NOT AVBL
MONTGOMERY     CLOUDY    48  38  68 S5        30.17F
POUGHKEEPSIE   CLOUDY    50  37  61 SE5       30.18F
ALBANY         CLOUDY    52  36  54 S7        30.16F
$$

NJZ001-105-106-008-010-013-015-019>022-104-010900-
NEW JERSEY

CITY           SKY/WX    TMP DP  RH WIND       PRES   REMARKS
NEWARK/LIBERTY CLOUDY    51  38  60 CALM      30.20R
TETERBORO      LGT RAIN  50  36  58 SW3       30.19S
CALDWELL       CLOUDY    49  38  65 CALM      30.20S
MORRISTOWN     CLOUDY    46  39  76 CALM      30.20S
SOMERVILLE     CLOUDY    48  38  68 CALM      30.18S
SUSSEX         CLOUDY    48  38  68 CALM      30.18F
ANDOVER          N/A     47  35  63 CALM      30.18F
TRENTON        CLOUDY    47  39  74 E3        30.18R
MILLVILLE      CLOUDY    48  44  86 E5        30.17F
ATLANTIC CITY  CLOUDY    49  44  83 SE3       30.18F
WRIGHTSTOWN    NOT AVBL
TOMS RIVER     CLOUDY    45  39  81 CALM      30.18F
BELMAR         CLOUDY    48  42  80 SE3       30.20S
$$

PAZ047>061-062-071-010900-
EASTERN PENNSYLVANIA

CITY           SKY/WX    TMP DP  RH WIND       PRES   REMARKS
PHILADELPHIA   LGT RAIN  50  39  66 E3        30.19R
ALLENTOWN      CLOUDY    51  37  58 SE3       30.17S
SCRANTON       LGT RAIN  48  43  82 CALM      30.14R
$$

CTZ002-004>006-009-010-012-RIZ004-006-007-MAZ004-011-015-010900-
SOUTHERN NEW ENGLAND
 IN CT

CITY           SKY/WX    TMP DP  RH WIND       PRES   REMARKS
BRADLEY INTL   CLOUDY    45  35  68 SE6       30.20F
HARTFORD       CLOUDY    47  37  68 SE3       30.22S
DANBURY        PTCLDY    46  36  68 CALM      30.21F
WTRBRY/OXFORD    N/A     45  36  70 CALM      30.21F
BRIDGEPORT     CLOUDY    49  38  65 SE3       30.21S
MERIDEN        CLOUDY    45  37  73 CALM      30.21F
NEW HAVEN      CLOUDY    45  37  73 SE3       30.22S
CHESTER        FAIR      43  37  81 CALM      30.22R
GROTON         CLOUDY    43  43 100 CALM      30.22F
WILLIMANTIC    CLOUDY    42  36  79 CALM      30.23R

 IN RI

CITY           SKY/WX    TMP DP  RH WIND       PRES   REMARKS
PROVIDENCE     CLOUDY    41  35  79 CALM      30.24S
BLOCK ISLAND   CLOUDY    43  38  82 CALM      30.23S
WESTERLY       CLOUDY    42  37  82 CALM      30.23S

 IN MA

CITY           SKY/WX    TMP DP  RH WIND       PRES   REMARKS
BOSTON         CLOUDY    44  33  65 SW7       30.24R
WORCESTER      CLOUDY    42  27  55 W12       30.19F
WESTFIELD      CLOUDY    45  34  65 SE3       30.20F
PROVINCETOWN   CLEAR     34  30  85 CALM      30.25R
NANTUCKET      CLEAR     39  34  82 NE5       30.24R
$$

ANZ330-335-338-340-345-350-353-355-010900-
COASTAL MARINE OBSERVATIONS


STATION/POSITION TIME  SKY/WX   TEMP    WIND        PRES    VSBY  WAVE
                                AIR SEA DIR/SP/G                  HT/PER
                 (UTC)          (F)     (DEG/KT/KT) (MB)    (MI)  (FT/S)
NY HARB ENTRANCE 0650            48 51  140/  8/ 10 1022.4          4/ 8
20S FIRE ISLAND  0650            47 49  120/  8/  8 1022.7          4/ 8
GREAT SOUTH BAY  0700            48 57  140/  6/  8   N/A
23 SSW MONTAUK P 0750            46 47  130/  6/  8 1022.7          4/ 7
15 E BARNEGAT LI 0722               51                N/A           5/ 8
HUDSON CANYON    0650            47 48              1022.3          5/ 8
KINGS POINT      0700            49 54              1022.4
EXECUTION ROCKS  NOT AVBL
CENTRAL LI SOUND NOT AVBL
EASTERN LI SOUND 0700            47 48  170/  2/  4   N/A
ROBBINS REEF     0706            49     150/  9/ 10 1021.8
$$


>>>>>>>>>>>>>>>>>>>>>>>>>>>> KEY <<<<<<<<<<<<<<<<<<<<<<<<<<<
>                                                          <
>     SKY/WX - SKY CONDITION/PRESENT WEATHER               <
>     TMP    - TEMPERATURE IN FAHRENHEIT                   <
>     DP     - DEWPOINT IN FAHRENHEIT                      <
>     RH     - RELATIVE HUMIDITY IN PERCENT                <
>     WIND   - DIRECTION AND SPEED IN MPH                  <
>     PRES   - MEAN SEA LEVEL PRESSURE IN INCHES OF HG     <
>     WCI    - WIND CHILL INDEX                            <
>     VSB    - VISIBILITY IN MILES                         <
>     HX     - HEAT INDEX                                  <
>     TC     - TEMPERATURE IN CELSIUS                      <
>     VRB    - VARIABLE WIND DIRECTION                     <
>                                                          <
>>>>>>>>>>>>>>>>>>>>>>>>>>>> KEY <<<<<<<<<<<<<<<<<<<<<<<<<<<






USA.gov is the U.S. government's official web portal to all federal, state and local government web resources and services.